DMSP 5D-2 F11 DEB, 28343

Orbit data source: Space-Track

DMSP 5D-2 F11 DEB, 28343 is space debris in SSO originally from a launch on Thu, 28 Nov 1991 UTC launched from the Air Force Western Test Range (AFWTR). Debris objects in space refer to the collection of defunct objects orbiting the Earth. Examples of debris include non-operational satellites, rocket bodies, and fragments generated from explosions, collisions, or faulty payload assembly.

Loading next visibility...
Identifier
28343, 1991-082BG
Orbit
SSO
Country
Flag of USUS
Related business
Manufacturer
Unknown
Mission
Spacecraft
Bus & Motor
Unknown
Mass
Unknown
Launch date (UTC)
1991-11-28 (34 years ago)
Launch vehicle
Unknown
Launch site
Air Force Western Test Range (AFWTR)
Object type
Payload
Rocket body
Debris
Shape & HBR
Unknown shape, 0.1 m
Radar Cross Section
Small (<0.1 m²)

Expand to show TLE details & history
Last TLE update: 3 days ago

TLE from 3 days ago
0 DMSP 5D-2 F11 DEB
1 28343U 91082BG  26118.50439303  .00005020  00000-0  16539-2 0  9998
2 28343  98.8831 210.7945 0058235 341.0147  18.8868 14.37636445128575
Epoch: 2026-04-28T12:06Z
TLE epoch observation values (Epoch: 2026-04-28T12:06:19.557Z)
Latitude
0.00001°
Longitude
172.73426°
Altitude
729.903 km
Speed
7.511 km/s
True Right ascension
14h 03m 10s
True Declination
0° 00' 00"
Sunlit
Object was in full shadow at epoch
Visualization orbit readout
Latitude
Unknown
Longitude
Unknown
Altitude
Unknown
Speed
Unknown
Apparent Right ascension
Unknown
Apparent Declination
Unknown
Sunlit
N/A
Visualization observer readout
Local Sidereal Time
00:17:33
Azimuth
Unknown
Elevation
Unknown
Doppler factor
Unknown
Orbital elements
Apogee altitude
805.051 km
Perigee altitude
721.873 km
Semi-major axis
7,141.599 km
Eccentricity
0.00582
Inclination
98.8831°
RAAN
210.7945°
Arg. of periapsis
341.0147°
True anomaly
19.10431°
Mean anomaly
18.8868°
Eccentric anomaly
18.9954°
Mean motion
3.59625 °/min
Orbital period
100.1 mins
BSTAR
0.0016539
Loading maneuver chart data...
Computing Atmospheric mass density...
Loading historical data...
Loading historical data...
Loading historical data...
Loading historical data...
Loading historical data...
Loading historical data...
Loading historical data...

Documentation

Showing up to 5 results
|